SCP
0 0 0 0 0 0 0 0 0 0 0 0 0 0 0 0 0 0 0 0 0 0 0 0 0 0 0 0 0 0 0 0 0 0 0 0 0 0 0 0 0 0 0 0
0 0 0 0 0 0 0 0 0 0 0 0 0 0 0 0 0 0 0 0 0 0 0 0 0 0 0 0 0 0 0 0 0 0 0 0 0 0 0 0 0 0 0 0
0 0 0 0 0 0 0 0 0 0 0 0 0 0 0 0 0 0 0 0 0 0 0 0 0 0 0 0 0 0 0 0 0 0 0 0 0 0 0 0 0 0 0 0
0 0 0 0 0 0 0 0 0 0 0 0 0 0 0 0 0 0 0 0 0 0 0 0 0 0 0 0 0 0 0 0 0 0 0 0 0 0 0 0 0 0 0 0
0 0 0 0 0 0 0 0 0 0 0 0 0 0 0 0 0 0 0 0 0 0 0 0 0 0 0 0 0 0 0 0 0 0 0 0 0 0 0 0 0 0 0 0
0 0 0 0 0 0 0 0 0 0 0 0 0 0 0 0 0 0 0 0 0 0 0 0 0 0 0 0 0 0 0 0 0 0 0 0 0 0 0 0 0 0 0 0
0 0 0 0 0 0 0 0 0 0 0 0 0 0 0 0 0 0 0 0 0 0 0 0 0 0 0 0 0 0 0 0 0 0 0 0 0 0 0 0 0 0 0 0
0 0 0 0 0 0 0 0 0 0 0 0 0 0 0 0 0 0 0 0 0 0 0 0 0 0 0 0 0 0 0 0 0 0 0 0 0 0 0 0 0 0 0 0
0 0 0 0 0 0 0 0 0 0 0 0 0 0 0 0 0 0 0 0 0 0 0 0 0 0 0 0 0 0 0 0 0 0 0 0 0 0 0 0 0 0 0 0
0 0 0 0 0 0 0 0 0 0 0 0 0 0 0 0 0 0 0 0 0 0 0 0 0 0 0 0 0 0 0 0 0 0 0 0 0 0 0 0 0 0 0 0
0 0 0 0 0 0 0 0 0 0 0 0 0 0 0 0 0 0 0 0 0 0 0 0 0 0 0 0 0 0 0 0 0 0 0 0 0 0 0 0 0 0 0 0
0 0 0 0 0 0 0 0 0 0 0 0 0 0 0 0 0 0 0 0 0 0 0 0 0 0 0 0 0 0 0 0 0 0 0 0 0 0 0 0 0 0 0 0
0 0 0 0 0 0 0 0 0 0 0 0 0 0 0 0 0 0 0 0 0 0 0 0 0 0 0 0 0 0 0 0 0 0 0 0 0 0 0 0 0 0 0 0
0 0 0 0 0 0 0 0 0 0 0 0 0 0 0 0 0 0 0 0 0 0 0 0 0 0 0 0 0 0 0 0 0 0 0 0 0 0 0 0 0 0 0 0
0 0 0 0 0 0 0 0 0 0 0 0 0 0 0 0 0 0 0 0 0 0 0 0 0 0 0 0 0 0 0 0 0 0 0 0 0 0 0 0 0 0 0 0
0 0 0 0 0 0 0 0 0 0 0 0 0 0 0 0 0 0 0 0 0 0 0 0 0 0 0 0 0 0 0 0 0 0 0 0 0 0 0 0 0 0 0 0
0 0 0 0 0 0 0 0 0 0 0 0 0 0 0 0 0 0 0 0 0 0 0 0 0 0 0 0 0 0 0 0 0 0 0 0 0 0 0 0 0 0 0 0
0 0 0 0 0 0 0 0 0 0 0 0 0 0 0 0 0 0 0 0 0 0 0 0 0 0 0 0 0 0 0 0 0 0 0 0 0 0 0 0 0 0 0 0
0 0 0 0 0 0 0 0 0 0 0 0 0 0 0 0 0 0 0 0 0 0 0 0 0 0 0 0 0 0 0 0 0 0 0 0 0 0 0 0 0 0 0 0
0 0 0 0 0 0 0 0 0 0 0 0 0 0 0 0 0 0 0 0 0 0 0 0 0 0 0 0 0 0 0 0 0 0 0 0 0 0 0 0 0 0 0 0
0 0 0 0 0 0 0 0 0 0 0 0 0 0 0 0 0 0 0 0 0 0 0 0 0 0 0 0 0 0 0 0 0 0 0 0 0 0 0 0 0 0 0 0
0 0 0 0 0 0 0 0 0 0 0 0 0 0 0 0 0 0 0 0 0 0 0 0 0 0 0 0 0 0 0 0 0 0 0 0 0 0 0 0 0 0 0 0
0 0 0 0 0 0 0 0 0 0 0 0 0 0 0 0 0 0 0 0 0 0 0 0 0 0 0 0 0 0 0 0 0 0 0 0 0 0 0 0 0 0 0 0
0 0 0 0 0 0 0 0 0 0 0 0 0 0 0 0 0 0 0 0 0 0 0 0 0 0 0 0 0 0 0 0 0 0 0 0 0 0 0 0 0 0 0 0
0 0 0 0 0 0 0 0 0 0 0 0 0 0 0 0 0 0 0 0 0 0 0 0 0 0 0 0 0 0 0 0 0 0 0 0 0 0 0 0 0 0 0 0
0 0 0 0 0 0 0 0 0 0 0 0 0 0 0 0 0 0 0 0 0 0 0 0 0 0 0 0 0 0 0 0 0 0 0 0 0 0 0 0 0 0 0 0
0 0 0 0 0 0 0 0 0 0 0 0 0 0 0 0 0 0 0 0 0 0 0 0 0 0 0 0 0 0 0 0 0 0 0 0 0 0 0 0 0 0 0 0
Wind_Speed
11 11 11 12 12 10 11 12 12 11 10 7 4 2 1 3 4 4 4 4 4 4 4 5 5 5 5 5 4 4 3 3 3 3 3 2 1 1 1 1 1 2 2 2
11 10 10 12 12 12 11 11 12 12 9 3 2 0 2 4 4 4 4 4 4 5 5 5 5 4 4 4 3 3 3 3 3 3 2 2 1 1 2 2 2 2 2 2
10 9 11 11 8 9 10 9 10 11 6 0 1 2 3 3 4 4 4 4 4 5 5 5 5 5 5 4 4 3 3 3 3 3 2 2 1 1 2 1 1 1 2 2
8 8 10 3 2 6 8 8 7 6 4 2 1 2 2 2 3 3 4 4 4 5 5 5 5 5 5 5 4 4 3 3 3 2 2 2 1 1 1 1 1 1 1 2
7 9 9 5 4 5 7 7 4 4 3 3 4 4 4 3 2 3 3 3 3 5 5 5 5 5 5 5 4 4 3 3 2 2 2 2 2 1 1 1 1 1 2 2
8 9 7 2 1 1 6 6 2 3 4 5 5 5 4 5 4 4 4 3 4 5 6 5 5 5 6 5 4 3 3 3 3 2 2 2 2 1 1 1 0 1 2 2
11 10 6 1 1 3 6 2 3 2 3 5 3 3 6 6 5 5 5 4 4 5 5 5 6 6 5 5 4 3 3 3 3 3 2 2 2 1 1 1 1 1 1 1
7 8 4 3 4 4 3 3 2 2 3 4 4 6 7 6 6 6 5 6 5 5 5 5 5 5 5 4 4 4 4 4 4 3 2 2 2 1 1 0 1 1 1 1
5 4 2 2 3 1 1 2 3 3 3 5 6 7 7 6 6 6 6 5 5 5 6 5 5 4 5 5 4 4 4 4 3 3 2 2 1 1 1 1 1 0 0 1
7 5 4 4 4 4 4 3 3 4 5 6 7 7 7 6 5 6 6 6 5 6 6 5 5 4 4 4 4 4 4 3 3 3 2 2 1 1 0 1 1 1 1 0
9 6 5 5 4 4 4 5 5 6 6 7 7 7 7 6 6 5 5 5 5 5 6 6 5 4 4 4 4 4 3 3 2 2 2 1 0 1 2 2 2 3 3 2
8 5 5 4 3 4 5 6 7 7 7 7 7 8 7 6 6 6 6 6 6 6 6 6 6 5 4 5 5 4 3 3 2 2 2 1 1 1 1 1 0 2 3 5
8 6 4 3 5 6 6 6 7 7 7 8 7 7 7 7 6 6 6 7 6 6 6 6 5 5 5 4 4 4 3 2 1 1 2 1 1 1 0 2 4 4 4 4
6 5 6 7 7 7 7 7 7 7 7 7 7 8 7 7 7 7 7 7 6 6 7 6 6 5 5 5 4 4 3 3 2 2 1 1 1 2 2 1 1 2 5 6
10 9 8 7 8 9 8 8 9 9 9 8 8 8 8 8 7 7 6 7 6 6 7 6 6 6 5 6 5 4 3 2 2 1 2 1 2 2 2 2 2 1 1 4
10 8 9 10 11 11 10 10 9 9 9 9 8 8 8 7 7 7 7 7 6 6 6 6 6 6 6 6 5 4 3 3 2 2 2 1 2 2 1 2 2 2 2 1
12 12 12 12 12 12 11 10 9 9 9 9 9 9 8 8 8 7 7 7 6 5 6 6 6 6 6 6 5 4 4 5 6 4 3 2 2 2 2 3 3 2 2 0
12 12 12 12 12 11 11 10 9 9 9 9 10 9 9 8 8 7 7 7 6 6 6 6 6 6 6 5 4 3 3 3 4 4 3 3 3 3 3 3 3 4 3 3
12 12 12 12 11 11 10 10 9 9 9 10 10 10 9 8 7 7 7 7 7 7 6 6 6 6 6 5 4 5 5 4 4 4 4 3 5 4 4 4 4 4 4 4
12 12 13 12 12 11 11 10 10 9 10 10 10 10 9 8 8 7 7 6 5 4 6 6 7 6 6 5 6 5 4 4 4 4 4 4 4 5 5 5 5 4 5 5
12 13 14 13 12 12 11 11 10 10 10 10 10 10 9 9 8 7 7 6 6 6 6 7 6 6 5 4 6 5 4 4 4 4 5 5 5 5 5 5 5 5 5 6
12 12 13 13 12 11 10 10 10 11 10 10 10 9 9 9 9 8 7 4 5 7 6 7 6 5 4 5 6 5 5 5 5 4 4 5 5 5 5 6 5 5 5 6
12 12 12 12 12 11 11 10 11 10 10 10 10 9 9 7 6 6 6 6 6 8 7 5 5 7 6 7 6 5 5 5 5 5 5 5 6 5 6 6 6 6 6 6
12 13 12 11 11 12 11 11 10 9 9 9 9 8 8 7 6 5 4 7 7 8 6 5 8 8 8 7 6 6 6 6 5 6 6 6 5 6 5 6 6 6 6 8
13 12 13 13 12 10 11 10 10 10 10 7 9 9 7 6 5 5 5 7 8 8 7 7 10 10 9 7 6 6 6 5 5 5 5 5 6 6 6 6 6 7 7 7
12 11 10 10 9 8 9 9 8 8 8 8 7 7 6 6 6 6 6 7 9 8 6 6 8 10 9 7 7 6 6 5 6 6 6 6 7 7 6 6 8 7 7 7
11 10 9 10 9 9 9 9 8 8 8 8 7 7 7 6 6 6 7 6 6 7 6 6 6 7 7 6 6 5 5 5 5 5 5 5 5 6 6 7 6 6 6 6
Wind_Direction
277 283 282 277 279 269 257 265 276 288 295 313 319 312 150 146 145 145 148 141 145 144 143 147 150 145 141 140 133 139 146 142 134 125 118 114 104 86 68 52 40 15 1 4
274 271 273 273 272 268 265 263 267 276 283 333 24 116 150 157 166 171 164 155 151 150 147 147 146 139 138 134 134 144 148 135 115 115 120 117 104 93 76 58 38 11 3 19
278 282 277 264 267 266 261 263 268 273 289 328 226 174 176 178 184 184 174 166 158 155 154 156 153 147 147 145 142 147 143 133 123 128 133 118 103 94 76 63 39 4 10 28
278 275 263 289 311 281 272 268 269 272 275 247 192 150 152 171 178 174 169 163 157 156 157 157 154 153 149 147 152 154 145 136 131 132 132 124 129 106 80 62 33 2 17 31
268 270 272 252 245 260 270 271 263 254 239 177 148 163 151 129 140 149 152 155 156 155 154 152 152 149 149 150 154 152 140 132 125 134 141 149 125 97 68 35 15 8 41 35
259 271 275 313 45 287 262 253 172 213 201 178 193 229 127 124 132 125 128 136 147 146 143 145 145 153 157 155 153 146 138 135 125 123 126 121 109 102 79 80 46 25 56 36
255 261 268 354 113 221 253 18 100 187 188 187 208 43 101 127 132 129 132 136 143 143 143 142 153 161 157 152 147 147 144 137 130 128 127 124 125 139 140 133 60 36 64 77
251 257 262 118 184 243 345 66 128 167 164 158 122 113 124 132 136 141 142 140 142 142 137 141 155 161 154 144 142 149 148 141 137 139 143 135 139 148 152 163 185 163 128 128
264 280 5 174 237 254 192 181 173 167 143 147 143 140 140 143 143 146 146 144 145 144 139 139 147 153 145 137 146 151 146 133 134 140 145 152 167 173 187 212 246 182 209 156
257 253 254 248 234 212 200 182 166 156 151 155 150 148 148 149 148 147 149 150 151 148 142 140 145 145 140 142 149 153 146 140 145 152 154 141 198 211 257 296 303 292 283 311
257 258 248 233 219 197 174 163 156 152 153 153 149 153 155 156 155 151 150 154 156 153 149 146 147 148 149 149 155 160 154 154 166 161 132 142 154 18 336 360 358 315 326 327
266 253 248 235 199 180 173 171 162 156 152 153 154 156 158 156 156 156 156 155 155 153 149 148 152 153 153 159 165 167 159 158 159 144 132 168 159 133 102 265 209 247 281 298
262 255 246 202 192 187 180 171 165 163 158 154 156 158 158 155 156 157 159 159 158 158 153 153 156 157 158 162 168 169 163 154 172 155 151 188 224 244 227 186 202 220 231 247
224 216 207 199 188 176 171 167 163 159 157 154 154 158 158 155 157 162 163 161 160 160 157 158 162 162 163 162 165 167 169 162 202 183 190 209 242 266 268 279 234 179 195 208
220 224 212 195 181 172 170 168 166 164 159 156 156 160 161 160 162 161 159 159 162 166 162 161 163 164 167 168 169 174 185 180 194 215 221 223 247 255 263 273 280 277 197 176
211 205 191 186 182 176 177 178 175 168 164 162 161 161 161 160 159 159 161 163 166 168 163 164 168 169 174 176 179 185 185 162 218 244 236 222 243 263 270 265 266 270 266 262
197 194 190 187 183 181 183 181 176 169 167 166 162 159 160 159 159 161 163 164 166 166 166 171 177 179 180 182 193 200 195 172 185 223 237 251 255 260 266 267 268 266 266 35
205 199 194 188 183 181 180 178 173 170 169 166 161 162 165 166 166 162 164 164 166 169 175 180 184 189 189 189 195 218 215 214 210 222 228 235 262 273 277 277 274 268 264 208
201 195 190 185 181 178 177 174 169 166 165 165 165 166 168 169 167 165 168 171 176 178 178 177 176 198 197 191 206 214 220 222 224 230 237 230 241 250 259 267 272 271 271 268
188 184 180 178 177 176 174 171 167 165 165 166 166 166 169 170 171 170 174 183 186 175 169 173 182 191 197 192 218 223 221 226 231 235 242 251 255 258 261 267 273 276 278 275
178 175 174 172 172 174 170 167 167 167 167 170 171 171 170 173 175 176 182 181 171 172 171 171 191 194 194 188 212 228 224 228 239 244 250 257 263 266 271 275 278 280 281 282
174 173 172 168 168 168 165 165 168 168 168 173 175 172 171 174 178 180 186 187 167 165 189 189 189 174 178 209 218 225 227 232 239 243 250 257 263 267 271 274 273 275 278 277
172 171 169 167 167 164 165 168 168 169 172 175 176 176 177 178 180 182 180 177 175 173 201 190 156 153 186 223 228 231 233 236 243 248 252 257 261 266 271 274 274 275 277 279
169 167 166 164 164 163 166 168 167 170 173 175 175 174 176 179 183 191 175 160 169 175 201 163 163 179 214 232 230 232 236 238 242 250 256 261 265 267 269 272 275 278 278 280
167 165 164 166 170 168 163 164 165 170 174 172 170 174 181 183 180 175 172 164 162 185 199 176 182 198 222 232 231 234 241 247 258 269 268 271 272 274 278 278 280 283 284 285
164 168 167 174 171 166 165 167 171 172 175 172 171 172 175 176 177 173 176 178 179 198 211 194 190 201 222 227 228 234 242 240 239 246 259 269 274 278 280 283 284 283 287 288
167 164 166 172 171 171 169 170 172 175 176 172 168 171 175 176 178 180 182 184 186 199 208 206 205 211 222 228 230 234 243 251 255 258 262 266 272 275 276 277 279 284 287 289